Miscellaneous Local Product
Issued by NWS Hastings, NE

Home | Current Version | Previous Version | Text Only | Print | Product List | Glossary On
Versions: 1 2 3 4 5 6 7 8 9 10 11 12 13 14 15 16 17 18 19 20 21 22 23 24 25 26 27 28 29 30 31 32 33 34 35 36 37 38 39 40 41 42 43 44 45 46 47 48 49 50
000
AXUS43 KGID 220302
MISGRI

GID CWA HOURLY WEATHER ROUNDUP
NATIONAL WEATHER SERVICE HASTINGS NE
1000 PM CDT THU SEP 21 2017

NOTE: "FAIR" INDICATES FEW OR NO CLOUDS BELOW 12,000 FEET WITH NO
SIGNIFICANT WEATHER AND/OR OBSTRUCTIONS TO VISIBILITY.

...SOUTH CENTRAL NEBRASKA...

CITY           SKY/WX    TMP DP  RH WIND       PRES   REMARKS
GRAND ISLAND   CLEAR     82  71  69 SE15G23   29.71R
HASTINGS       CLEAR     85  67  54 S15G23    29.72R
KEARNEY        CLEAR     80  64  58 S14       29.70R
ORD            CLEAR     81  64  56 SE13      29.66S
YORK           CLEAR     82  72  69 SE13      29.74R
AURORA         CLEAR     82  69  64 SE17      29.72R
LEXINGTON      CLEAR     72  45  37 S8        29.68R
HOLDREGE       CLEAR     78  52  39 S13       29.69R
HEBRON         CLEAR     86  71  60 S16G26    29.75R HX  91

...NEBRASKA PANHANDLE...

CITY           SKY/WX    TMP DP  RH WIND       PRES   REMARKS
CHADRON        CLEAR     66  37  34 NE12      29.66R
ALLIANCE       CLEAR     62  44  51 E10       29.64S
SCOTTSBLUFF    CLEAR     63  45  51 SE3       29.63R
SIDNEY         CLEAR     61  32  33 S9        29.66S

...WESTERN AND NORTH CENTRAL NEBRASKA...

CITY           SKY/WX    TMP DP  RH WIND       PRES   REMARKS
VALENTINE      CLEAR     76  51  41 NE7       29.63F
AINSWORTH      CLEAR     74  62  67 SE10      29.64F
ONEILL         CLEAR     81  68  64 SE17G23   29.67S
BROKEN BOW     CLEAR     72  49  44 SE9       29.67R
IMPERIAL       CLEAR     77  34  21 SE16      29.64R
NORTH PLATTE   CLEAR     83  41  22 SE14G21   29.64R

...EASTERN NEBRASKA...

CITY           SKY/WX    TMP DP  RH WIND       PRES   REMARKS
NORFOLK        CLEAR     81  71  71 SE17      29.72R
SO SIOUX CITY  CLEAR     80  73  79 SE10G18   29.74R
TEKAMAH        CLEAR     82  72  71 S13       29.76R
COLUMBUS       CLEAR     83  73  72 SE13G21   29.73R
ALBION         PTCLDY    80  70  70 SE10      29.71S
OMAHA EPPLEY   CLEAR     84  72  67 S16       29.78R
OFFUTT AFB     CLEAR     82  73  72 SE16      29.78R
MILLARD        CLEAR     85  75  71 SE15      29.78R HX  93
LINCOLN        CLEAR     85  73  67 S20G32    29.76R HX  91
NEBRASKA CITY  PTCLDY    82  75  80 S18G25    29.81S
BEATRICE       CLEAR     84  73  68 SE17G24   29.77R HX  91
FALLS CITY     CLEAR     83  72  69 S15G26    29.81R

...NORTHERN KANSAS...

CITY           SKY/WX    TMP DP  RH WIND       PRES   REMARKS
GOODLAND       CLEAR     73  37  27 S10       29.69R
HILL CITY      CLEAR     86  61  42 S16G23    29.70R
NORTON         CLEAR     81  30  16 SE13      29.69R
PHILLIPSBURG   CLEAR     88  55  33 S15G23    29.69S
SMITH CENTER   CLEAR     84  61  45 S17G25    29.71R
HAYS           CLEAR     86  67  52 S26G32    29.72R
RUSSELL        CLEAR     86  66  51 S22G36    29.73R
CONCORDIA      CLEAR     84  72  67 S23G32    29.75R
SALINA         CLEAR     88  71  57 S21G35    29.77R HX  94
TOPEKA         CLEAR     82  74  76 S17G25    29.84R



USA.gov is the U.S. government's official web portal to all federal, state and local government web resources and services.